Regional Weather Roundup
Issued by NWS

Home | Current Version | Previous Version | Text Only | Print | Product List | Glossary On
Versions: 1 2 3 4 5 6 7 8 9 10 11 12 13 14 15 16 17 18 19 20 21 22 23 24 25 26 27 28 29 30 31 32 33 34 35 36 37 38 39 40 41 42 43 44 45 46 47 48 49 50
354
ASUS45 KCYS 141010
RWRWY

WYOMING REGIONAL WEATHER ROUNDUP
NATIONAL WEATHER SERVICE CHEYENNE WY
300 AM MST SUN FEB 14 2016

NOTE:  "FAIR" INDICATES FEW OR NO CLOUDS BELOW 12,000 FEET
WITH NO SIGNIFICANT WEATHER AND/OR OBSTRUCTIONS TO VISIBILITY.

WYZ001-141100-
YELLOWSTONE NATIONAL PARK

CITY           SKY/WX    TMP DP  RH WIND       PRES   REMARKS
LK YELLOWSTONE   N/A     22  17  81 VRB3      30.03F
W YELLOWSTONE  NOT AVBL

$$
WYZ002>013-054>058-071-098>099-141100-
NORTHERN WYOMING

CITY           SKY/WX    TMP DP  RH WIND       PRES   REMARKS
JACKSON        CLOUDY    28  27  93 S17       30.08F WCI  16
CODY           CLOUDY    39  19  45 SW17G33   29.89F WCI  30
GREYBULL       CLOUDY    32  21  64 E6        29.91F WCI  26
WORLAND        FAIR      31  21  66 SE13      29.90F WCI  21
SHERIDAN       FAIR      29  19  66 S7        29.89F WCI  22
BUFFALO        FAIR      30  15  53 S3        29.90F
GILLETTE       FAIR      30  22  72 SW13      29.91F WCI  20
HULETT         FAIR      32  27  80 SW8       29.90F WCI  25
NEWCASTLE      FAIR      25  23  93 NW3       29.94F

$$
WYZ014>020-022>026-101>103-141100-
CENTRAL WYOMING

CITY           SKY/WX    TMP DP  RH WIND       PRES   REMARKS
BIG PINEY      FAIR      20  16  84 E5        30.12F WCI  13
PINEDALE         N/A     23  18  80 MISG      30.11F
DUBOIS         CLOUDY    27  18  69 N29G37    29.95F WCI  11
LANDER         FAIR      29  15  56 NW7       29.95S WCI  22
RIVERTON       FAIR      34  12  40 W6        29.96F WCI  29
CASPER         FAIR      28  17  63 SW13      29.95F WCI  17
DOUGLAS        FAIR      24  21  88 CALM      29.97F

$$
WYZ021-027>030-104>119-141100-
SOUTHERN WYOMING

CITY           SKY/WX    TMP DP  RH WIND       PRES   REMARKS
EVANSTON       FAIR      28  20  71 SW18      30.15F WCI  15
FORT BRIDGER   CLOUDY    30  23  74 W16       30.18F WCI  19
ROCK SPRINGS   FAIR      30  19  63 W29G37    30.09F WCI  15
DIXON          FAIR      18  14  86 S3        30.16F
RAWLINS        FAIR      27  18  69 SW24G32   30.03F WCI  12
SARATOGA       FAIR      30  19  64 SW6       30.07F WCI  24
LARAMIE        FAIR      30  14  51 SW22      29.99F WCI  17
CHEYENNE       FAIR      37  13  37 NW21G30   29.94F WCI  26
TORRINGTON     FAIR      29  22  75 W7        29.98F WCI  22
PINE BLUFFS    FAIR      30  19  64 N9        29.97F WCI  22

$$




USA.gov is the U.S. government's official web portal to all federal, state and local government web resources and services.